Location: Newark
(7.1028°S, 35.3258°W)
Time: 06:23:38
(UTC+00:00)

Vanguard 3 - Pass Details

Date: 02 March 2020
Orbit: 508 x 3263 km, 33.4° (Epoch: 04 April)

Event Time Altitude Azimuth Distance (km) Brightness Sun altitude
Rises 20:41:51 0° 268° (W) 6,341 14.7 -1.3°
Reaches altitude 10° 20:46:21 10° 260° (W) 5,635 13.6 -2.4°
Maximum altitude 21:02:32 36° 199° (SSW) 4,390 11.1 -6.4°
Drops below altitude 10° 21:19:31 10° 138° (SE) 5,840 11.2 -10.5°
Sets 21:24:22 0° 129° (SE) 6,579 11.4 -11.7°
